Powrót do katalogu

SL-8 DEB

AktywnyLEO
NORAD 1618·DEBRIS·🇷🇺 Russia

Wystrzelony Sep 18, 1965 z Baikonur Cosmodrome

Loading…

Następne Przeloty (najbliższe 24 godziny)

TLE

ŚwieżeSource: Space-Track

Epoka: Sep 14, 2026, 11:52 UTC

1 01618U 65073K   26257.49500144  .00000060  00000-0  11691-2 0  9992
2 01618  56.1738 276.8234 0227064  14.2382 133.5430 12.30430487734107

Śledź SL-8 DEB w czasie rzeczywistym z AllMySat

Download on the App Store